Location: Newark
(0.5300°S, 127.4800°E)
Time: 12:07:30
(UTC+00:00)

Transit 4A - All Passes

Search period start: 20 September 2019 00:00
Search period end: 30 September 2019 00:00
Orbit: 865 x 980 km, 66.8° (Epoch: 19 September)

Date Brightness Start Highest point End Pass type
(mag) Time Alt. Az. Time Alt. Az. Time Alt. Az.
20 Sep - 01:09:18 10° S 01:15:25 51° ESE 01:21:35 10° NE daylight
20 Sep - 02:58:25 10° W 03:01:33 14° WNW 03:04:44 10° NW daylight
20 Sep - 12:23:52 10° NNE 12:27:28 17° ENE 12:31:02 10° ESE night (unlit)
20 Sep - 14:08:15 10° NW 14:13:31 36° WSW 14:18:46 10° S night (unlit)
21 Sep - 01:18:22 10° SSW 01:24:43 85° ESE 01:31:07 10° NNE daylight
21 Sep - 12:31:47 10° N 12:36:46 29° ENE 12:41:43 10° SE night (unlit)
21 Sep - 14:18:38 10° WNW 14:22:49 20° WSW 14:27:00 10° SSW night (unlit)
21 Sep - 23:45:32 10° SE 23:47:53 12° ESE 23:50:13 10° E daylight
22 Sep - 01:27:48 10° SSW 01:34:00 58° WNW 01:40:16 10° N daylight
22 Sep - 12:40:25 10° N 12:46:03 52° ENE 12:51:39 10° SE night (unlit)
22 Sep - 14:30:38 10° W 14:32:08 11° WSW 14:33:38 10° SW night (unlit)
22 Sep - 23:52:31 10° SSE 23:57:13 22° ESE 00:01:55 10° ENE daylight
23 Sep - 01:37:39 10° SW 01:43:18 34° WNW 01:49:00 10° N daylight
23 Sep - 12:49:29 10° NNW 12:55:20 90° SW 13:01:07 10° SSE night (unlit)
24 Sep - 00:00:46 10° S 00:06:31 36° ESE 00:12:18 10° NE daylight
24 Sep - 01:48:07 10° WSW 01:52:37 20° WNW 01:57:09 10° NNW daylight
24 Sep - 11:16:56 10° NE 11:18:30 11° ENE 11:20:04 10° E night (unlit)
24 Sep - 12:58:58 10° NW 13:04:36 51° WSW 13:10:12 10° S night (unlit)
25 Sep - 00:09:33 10° S 00:15:48 62° ESE 00:22:06 10° NNE daylight
25 Sep - 02:00:12 10° W 02:01:58 11° WNW 02:03:43 10° NW daylight
25 Sep - 11:23:37 10° NNE 11:27:50 21° ENE 11:32:01 10° ESE night (unlit)
25 Sep - 13:08:55 10° NW 13:13:53 29° WSW 13:18:49 10° S night (unlit)
26 Sep - 00:18:45 10° SSW 00:25:06 80° WNW 00:31:30 10° NNE daylight
26 Sep - 11:31:50 10° N 11:37:08 36° ENE 11:42:22 10° SE visible
26 Sep - 13:19:38 10° WNW 13:23:11 17° WSW 13:26:43 10° SSW night (unlit)
26 Sep - 22:44:46 10° SE 22:48:16 15° ESE 22:51:47 10° ENE daylight
27 Sep - 00:28:19 10° SW 00:34:23 48° WNW 00:40:30 10° N daylight
27 Sep - 11:40:39 10° N 11:46:24 64° ENE 11:52:07 10° SSE visible
27 Sep - 22:52:25 10° SSE 22:57:36 26° ESE 23:02:47 10° NE daylight
28 Sep - 00:38:21 10° SW 00:43:41 28° WNW 00:49:03 10° NNW daylight
28 Sep - 11:49:53 10° NNW 11:55:41 74° WSW 12:01:27 10° SSE visible
28 Sep - 23:00:54 10° S 23:06:54 44° ESE 23:12:56 10° NE daylight
29 Sep - 00:49:10 10° WSW 00:53:01 17° WNW 00:56:53 10° NNW daylight
29 Sep - 10:15:57 10° NE 10:18:52 14° ENE 10:21:47 10° E visible
29 Sep - 11:59:31 10° NW 12:04:56 42° WSW 12:10:22 10° S visible
29 Sep - 23:09:51 10° SSW 23:16:12 75° ESE 23:22:33 10° NNE daylight
